TimeMDT,TemperatureF,Dew PointF,Humidity,Sea Level PressureIn,VisibilityMPH,Wind Direction,Wind SpeedMPH,Gust SpeedMPH,PrecipitationIn,Events,Conditions,WindDirDegrees,DateUTC
12:53 AM,32.0,28.9,88,30.30,10.0,Calm,Calm,-,N/A,,Overcast,0,2013-10-18 06:53:00
1:53 AM,30.0,27.0,88,30.31,10.0,SSW,8.1,-,N/A,,Overcast,200,2013-10-18 07:53:00
2:53 AM,30.9,28.0,89,30.30,10.0,SSW,5.8,-,N/A,,Overcast,200,2013-10-18 08:53:00
3:53 AM,30.0,27.0,88,30.30,10.0,South,8.1,-,N/A,,Mostly Cloudy,180,2013-10-18 09:53:00
4:53 AM,27.0,24.1,89,30.31,10.0,SSW,9.2,-,N/A,,Clear,200,2013-10-18 10:53:00
5:53 AM,27.0,25.0,92,30.32,10.0,South,8.1,-,N/A,,Clear,190,2013-10-18 11:53:00
6:53 AM,26.1,23.0,88,30.32,10.0,SSW,9.2,-,N/A,,Clear,210,2013-10-18 12:53:00
7:53 AM,24.1,21.0,88,30.35,10.0,SSW,8.1,-,N/A,,Clear,200,2013-10-18 13:53:00
8:53 AM,27.0,23.0,85,30.35,10.0,South,4.6,-,N/A,,Clear,190,2013-10-18 14:53:00
9:53 AM,32.0,27.0,82,30.34,10.0,SSW,4.6,-,N/A,,Clear,210,2013-10-18 15:53:00
10:53 AM,37.9,27.0,65,30.31,10.0,SSW,5.8,-,N/A,,Clear,210,2013-10-18 16:53:00
11:53 AM,43.0,25.0,49,30.29,10.0,SSW,8.1,-,N/A,,Clear,200,2013-10-18 17:53:00
12:53 PM,46.0,23.0,40,30.25,10.0,SSW,9.2,-,N/A,,Clear,210,2013-10-18 18:53:00
1:53 PM,48.9,21.9,35,30.20,10.0,Variable,5.8,-,N/A,,Clear,0,2013-10-18 19:53:00
2:53 PM,50.0,21.0,32,30.17,10.0,SSE,5.8,-,N/A,,Clear,150,2013-10-18 20:53:00
3:53 PM,53.1,21.0,29,30.13,10.0,SSE,5.8,-,N/A,,Clear,160,2013-10-18 21:53:00
4:53 PM,55.0,21.9,28,30.12,10.0,WNW,5.8,-,N/A,,Clear,290,2013-10-18 22:53:00
5:53 PM,50.0,26.1,39,30.13,10.0,NNW,5.8,-,N/A,,Clear,340,2013-10-18 23:53:00
6:53 PM,46.9,23.0,39,30.15,10.0,Calm,Calm,-,N/A,,Clear,0,2013-10-19 00:53:00
7:53 PM,36.0,24.1,62,30.22,10.0,South,5.8,-,N/A,,Clear,170,2013-10-19 01:53:00
8:53 PM,39.9,21.9,49,30.19,10.0,South,9.2,-,N/A,,Clear,190,2013-10-19 02:53:00
9:53 PM,42.1,21.0,43,30.16,10.0,South,13.8,-,N/A,,Clear,190,2013-10-19 03:53:00
10:53 PM,41.0,19.9,43,30.14,10.0,SSW,13.8,-,N/A,,Clear,200,2013-10-19 04:53:00
11:53 PM,37.9,21.0,51,30.12,10.0,SSW,10.4,-,N/A,,Clear,210,2013-10-19 05:53:00